User: anonymous   Login
Location: Gälforsberget
(66.6500°N, 22.4167°E)
Time: 23:30:27
(UTC+00:00)
Language:

RESURS DK-1 - Orbit

View from above orbital plane
View from above orbital plane
View from above satellite
View from above satellite

Ground track
Ground track

The orbit is defined by the following mean orbital elements,

1 29228U          26158.97910051 +.00000000 +00000-0 +16340-3 0 00007
2 29228  69.9339   3.3886 0006437 299.3252  60.7270 15.13177297    09
Epoch (UTC): 07 June 2026 23:29:54
Eccentricity: 0.0006437
inclination: 69.9339°
perigee height: 522 km
apogee height: 531 km
right ascension of ascending node: 3.3886°
argument of perigee: 299.3252°
revolutions per day: 15.13177297
mean anomaly at epoch: 60.7270°

The dashed part of the orbit path shows where the satellite is in the earth's shadow,  

DLR